Regional Weather Roundup
Issued by NWS

Home | Current Version | Previous Version | Graphics & Text | Print | Product List | Glossary On
Versions: 1 2 3 4 5 6 7 8 9 10 11 12 13 14 15 16 17 18 19 20 21 22 23 24 25 26 27 28 29 30 31 32 33 34 35 36 37 38 39 40 41 42 43 44 45 46 47 48 49 50
000
ASUS45 KBOU 281907
RWRCO

WEATHER ROUNDUP FOR COLORADO
NATIONAL WEATHER SERVICE DENVER/BOULDER CO
1200 PM MST SAT FEB 28 2015

NOTE: "FAIR" INDICATES FEW OR NO CLOUDS BELOW 12000 FEET WITH NO
SIGNIFICANT WEATHER AND/OR OBSTRUCTIONS TO VISIBILITY.

COZ001>005-013-030-031-282000-
...NORTHWEST COLORADO...

CITY           SKY/WX    TMP DP  RH WIND       PRES   REMARKS
CRAIG          MOSUNNY   36  14  40 E9        29.77F
HAYDEN         MOSUNNY   30  14  51 E7        29.76F WCI  23
MEEKER         PTSUNNY   31  16  54 SW6       29.75F WCI  25
MOUNT WERNER   NOT AVBL
STEAMBOAT SPGS MOSUNNY   26   8  46 CALM      29.76F
WALDEN         SUNNY     23  10  58 W5        29.77S WCI  17
$$

COZ006>008-011-282000-
...WEST CENTRAL VALLEYS...

CITY           SKY/WX    TMP DP  RH WIND       PRES   REMARKS
GRAND JUNCTION PTSUNNY   36  18  48 SE10      29.77F
MONTROSE       CLOUDY    30  21  69 NW7       29.80S WCI  23
EAGLE          PTSUNNY   28  18  64 CALM      29.82F
RIFLE          PTSUNNY   35  17  47 CALM      29.77F
DELTA          CLOUDY    37  24  58 S6        29.79F
NUCLA          CLOUDY    32  28  86 CALM      29.80S
$$

COZ017>023-064>068-282000-
...SOUTHWEST COLORADO...

CITY           SKY/WX    TMP DP  RH WIND       PRES   REMARKS
DURANGO        LGT SNOW  29  26  89 NE7       29.83S VSB 1   WCI  22
CORTEZ         SNOW      32  31  96 W7        29.81R VSB 1/2 WCI  26
PAGOSA SPRINGS SNOW      30  27  90 CALM      29.83S VSB 1/2
TELLURIDE      FLURRIES  28  21  75 CALM      29.76F
WOLF CREEK PAS SNOW      14  14 100 SW14G20   29.81S VSB 1/4 WCI  -1
$$

COZ009-010-012-014-032>034-037-058>063-282000-
...CENTRAL COLORADO...

CITY           SKY/WX    TMP DP  RH WIND       PRES   REMARKS
ASPEN          PTSUNNY   25  10  53 NW7       29.75F WCI  17
BUENA VISTA    PTSUNNY   25  14  61 CALM      29.82F
COPPER MTN     CLOUDY    21   3  45 S10       29.73F WCI  10
BERTHOUD PASS  CLOUDY     9   1  72 SE15      29.75S WCI  -8
COTTONWOOD PAS CLOUDY    27  14  59 SE5       29.78F WCI  21
GUNNISON       PTSUNNY   25   9  50 N7        29.83F WCI  17
KREMMLING      PTSUNNY   27   9  46 CALM      29.82F
LEADVILLE      CLOUDY    13   7  77 S6        29.75F WCI   4
SALIDA         NOT AVBL
SUNLIGHT       CLOUDY    25  16  68 SE3         N/A
WILKERSON PASS CLOUDY    21  12  68 S5        29.80F WCI  15
$$

COZ069>075-282000-
...SAN LUIS VALLEY/SANGRE DE CRISTO MOUNTAINS...

CITY           SKY/WX    TMP DP  RH WIND       PRES   REMARKS
ALAMOSA        LGT SNOW  24  19  81 VRB3      29.85S VSB 3/4
LA VETA PASS   LGT SNOW  23  19  86 SW3       29.81R
SAGUACHE       CLOUDY    27  19  74 S5        29.86F WCI  21
$$

COZ035-036-038>040-282000-
...NORTHERN COLORADO FRONT RANGE...

CITY           SKY/WX    TMP DP  RH WIND       PRES   REMARKS
DENVER INTL AP PTSUNNY   18   9  68 W6        29.97S WCI  10
DMNS CITY PARK   N/A     22   9  57 N2G10     29.97F
AURORA         PTSUNNY   17   8  68 N6        29.97S WCI   8
FRONT RANGE AP NOT AVBL
ERIE MUNI ARPT MOSUNNY   22   9  56 CALM      29.99S
BOULDER MUN AP MOSUNNY   25  10  54 N3        29.98F
CENTENNIAL     PTSUNNY   21   9  59 N8        29.94F WCI  11
BROOMFIELD     PTSUNNY   21  10  63 N7        29.97F WCI  13
FORT COLLINS   SUNNY     21  12  68 S6        30.00S WCI  14
LONGMONT       SUNNY     31  11  42 NE6       30.01F WCI  26
$$

COZ041-046-047-076>085-087-088-282000-
...PIKES PEAK/PALMER DIVIDE AND SOUTHERN FOOTHILLS...

CITY           SKY/WX    TMP DP  RH WIND       PRES   REMARKS
COLO. SPRINGS  MOSUNNY   19  10  68 SE3       29.89F
A. F. ACADEMY  MOSUNNY   24  11  56 N10       29.86F WCI  14
ELLICOTT       NOT AVBL
FALCON         MOSUNNY   26  12  56 CALM      29.87F
FORT CARSON    MOSUNNY   18   9  68 SE5       29.91F WCI  11
LIMON          SUNNY     16   7  67 N5        29.96F WCI   9
MONUMENT HILL  MOSUNNY   19   9  63 NW10      29.87F WCI   8
TRINIDAD       MOSUNNY   19  12  74 CALM      29.92F
$$

COZ042>045-048>051-090-091-282000-
...NORTHEAST COLORADO...

CITY           SKY/WX    TMP DP  RH WIND       PRES   REMARKS
GREELEY ARPT   MOSUNNY   23   9  54 S5        30.00F WCI  17
AKRON          PTSUNNY   18  12  77 SE6       30.00F WCI  10
BURLINGTON     CLOUDY    17  10  74 S9        30.05F HAZE    WCI   6
WRAY           FLURRIES  21  11  66 CALM      30.09F
STERLING       MOSUNNY   23  14  68 W5        30.06R WCI  17
HOLYOKE        NOT AVBL
FORT MORGAN    MOSUNNY   22  11  62 CALM      30.03S
$$

COZ086-089-092>099-282000-
...SOUTHEAST COLORADO...

CITY           SKY/WX    TMP DP  RH WIND       PRES   REMARKS
PUEBLO         SUNNY     17   8  67 CALM      29.99F
LA JUNTA       MOSUNNY   21  13  71 N5        30.03S WCI  15
LAMAR          PTSUNNY   24  13  62 CALM      30.03F
SPRINGFIELD      N/A     20  13  74 S8        29.98F WCI  10
$$


USA.gov is the U.S. government's official web portal to all federal, state and local government web resources and services.